Flag for U.S.A. Weather past 2 weeks in Barrow, Alaska, U.S.A.

Now
22 °F

Low clouds.


Feels Like: 22 °F
Forecast: 13 / 23 °F
Wind: No wind

Location: Post Rogers Memorial Airport

Current Time: Apr 26, 2015 at 2:32:32 AM

Latest Report: Apr 26, 2015 at 1:53 AM


Visibility: 10 mi

Pressure: 29.93 "Hg

Humidity: 92%

Dew point: 20 °F

Location of BarrowLocation

Historic Weather in Barrow — Graph

°F

Barrow temperature yesterday

Maximum temperature yesterday: 26 °F (at 4:53 PM)
Minimum temperature yesterday: 18 °F (at 12:53 AM)
Average temperature yesterday: 23 °F

Past Weeks' High & Low Weather Summary

 TemperatureHumidityPressure
High28 °F (Apr 24, 3:53 PM)100% (Apr 25, 1:53 AM)30.22 "Hg (Apr 25, 1:53 AM)
Low-12 °F (Apr 15, 3:53 AM)57% (Apr 18, 10:53 AM)29.53 "Hg (Apr 20, 12:57 AM)
Average9 °F85%29.84 "Hg
* Reported Apr 11 12:53 AM — Apr 26 12:53 AM, Barrow, Weather by CustomWeather, © 2015

Note: Actual official high and low records may vary slightly from our data, if they occured in-between our weather recording intervals... More about our weather records

Advertising

Barrow weather history for previous 24 hours

 ConditionsComfort  
Time TempWeatherWind HumidityBarometerVisibility
12:53 AM
Sun, Apr 26
22 °FLow clouds.No wind92%29.93 "Hg10 mi
11:53 PM
Sat, Apr 25
23 °FLow clouds.3 mph92%29.93 "Hg10 mi
10:53 PM23 °FLow clouds.6 mph92%29.92 "Hg10 mi
9:53 PM24 °FLow clouds.No wind91%29.92 "Hg10 mi
8:53 PM25 °FOvercast.No wind85%29.92 "Hg10 mi
7:53 PM25 °FOvercast.No wind88%29.91 "Hg10 mi
6:53 PM25 °FOvercast.7 mph88%29.91 "Hg10 mi
5:53 PM26 °FOvercast.5 mph88%29.91 "Hg10 mi
4:53 PM26 °FOvercast.6 mph88%29.91 "Hg10 mi
3:53 PM25 °FOvercast.6 mph92%29.91 "Hg10 mi
2:53 PM25 °FOvercast.5 mph96%29.91 "Hg10 mi
1:53 PM25 °FOvercast.7 mph96%29.91 "Hg10 mi
12:53 PM25 °FIce fog.5 mph96%29.92 "Hg3 mi
11:53 AM24 °FIce fog.7 mph96%29.93 "Hg2 mi
10:53 AM23 °FLow clouds.7 mph96%29.93 "Hg9 mi
9:53 AM23 °FLow clouds.10 mph96%29.93 "Hg10 mi
8:53 AM23 °FIce fog.12 mph96%29.94 "Hg3 mi
7:53 AM23 °FIce fog.8 mph96%29.94 "Hg6 mi
6:53 AM23 °FLow clouds.8 mph92%29.94 "Hg10 mi
5:53 AM22 °FIce fog.8 mph96%29.94 "Hg1 mi
4:53 AM21 °FIce fog.12 mph92%29.94 "Hg1 mi
3:53 AM20 °FIce fog.14 mph96%29.94 "Hg1 mi
2:53 AM19 °FIce fog.12 mph96%29.94 "Hg0 mi
Weather by CustomWeather, © 2015

See weather overviewHow to use our weather pages